Tracking 19651 objects as of 23-Apr-2019
HD Live streaming from Space Station
objects crossing your sky now

COSMOS 2211

Track COSMOS 2211 now!
10-day predictions
COSMOS 2211 is classified as:


NORAD ID: 22182
Int'l Code: 1992-068A
Perigee: 1,408.5 km
Apogee: 1,418.7 km
Inclination: 82.6 °
Period: 113.9 minutes
Semi major axis: 7784 km
RCS: 1.1084 m2 (large)
Launch date: October 20, 1992
Source: Commonwealth of Independent States (former USSR) (CIS)
Launch site: PLESETSK MISSILE AND SPACE COMPLEX (PKMTR)
aabbcc
Your satellite tracking list
Your tracking list is empty




NASA's NSSDC Master Catalog

Two Line Element Set (TLE):
1 22182U 92068A   19112.22165255  .00000026  00000-0  83973-4 0  9994
2 22182  82.5983 190.2212 0006580 343.3730  69.3127 12.63998165222814
Source of the keplerian elements: AFSPC